EN

Hourly Weather Paleczki

Today, 28 February, Sunday

Time Temperature Precipitation Wind Pressure Humidity
00:00 0°C° 0 mm 3 mps 755 mmHg 92%
01:00 +1°C° 0 mm 2 mps 755 mmHg 94%
02:00 0°C° 0 mm 3 mps 755 mmHg 94%
03:00 -1°C° 0 mm 3 mps 755 mmHg 94%
04:00 -1°C° 0 mm 3 mps 754 mmHg 94%
05:00 -1°C° 0 mm 3 mps 754 mmHg 93%
06:00 0°C° 0 mm 3 mps 754 mmHg 92%
07:00 -1°C° 0 mm 4 mps 754 mmHg 90%
08:00 0°C° 0 mm 5 mps 754 mmHg 85%
09:00 +1°C° 0 mm 5 mps 754 mmHg 81%
10:00 +2°C° 0 mm 5 mps 754 mmHg 77%
11:00 +2°C° 0 mm 6 mps 754 mmHg 76%
12:00 +2°C° 0 mm 6 mps 753 mmHg 75%
13:00 +3°C° 0 mm 5 mps 753 mmHg 73%
14:00 +3°C° 0 mm 5 mps 753 mmHg 72%
15:00 +5°C° 0 mm 5 mps 752 mmHg 72%
16:00 +5°C° 0 mm 5 mps 752 mmHg 71%
17:00 +3°C° 0 mm 5 mps 752 mmHg 76%
18:00 +2°C° 0 mm 5 mps 752 mmHg 81%
19:00 +2°C° 0 mm 5 mps 752 mmHg 86%
20:00 +1°C° 0 mm 5 mps 753 mmHg 87%
21:00 +1°C° 0 mm 5 mps 753 mmHg 88%
22:00 0°C° 0 mm 5 mps 753 mmHg 89%
23:00 0°C° 0 mm 4 mps 753 mmHg 89%

Tomorrow, 1 March, Monday

Time Temperature Precipitation Wind Pressure Humidity
00:00 0°C° 0 mm 4 mps 753 mmHg 89%
01:00 0°C° 0 mm 4 mps 753 mmHg 89%
02:00 0°C° 0 mm 4 mps 753 mmHg 90%
03:00 +1°C° 0 mm 3 mps 754 mmHg 91%
04:00 +1°C° 0 mm 3 mps 754 mmHg 92%
05:00 +1°C° 0 mm 3 mps 754 mmHg 92%
06:00 +1°C° 0 mm 3 mps 754 mmHg 92%
07:00 +2°C° 0 mm 2 mps 754 mmHg 93%
08:00 +2°C° 0 mm 2 mps 755 mmHg 90%
09:00 +3°C° 0 mm 2 mps 755 mmHg 87%
10:00 +3°C° 0 mm 2 mps 755 mmHg 84%
11:00 +4°C° 0 mm 2 mps 755 mmHg 83%
12:00 +4°C° 0 mm 2 mps 755 mmHg 81%
13:00 +4°C° 0 mm 2 mps 755 mmHg 79%
14:00 +4°C° 0 mm 2 mps 755 mmHg 79%
15:00 +5°C° 0 mm 2 mps 755 mmHg 78%
16:00 +5°C° 0 mm 2 mps 755 mmHg 77%
17:00 +5°C° 0 mm 1 mps 755 mmHg 81%
18:00 +4°C° 0 mm 1 mps 755 mmHg 86%
19:00 +3°C° 0 mm 1 mps 755 mmHg 90%
20:00 +3°C° 0 mm 1 mps 755 mmHg 90%
21:00 +2°C° 0 mm 2 mps 755 mmHg 91%
22:00 +1°C° 0 mm 2 mps 755 mmHg 91%
23:00 +1°C° 0 mm 2 mps 755 mmHg 91%

Day after tomorrow, 2 March, Tuesday

Time Temperature Precipitation Wind Pressure Humidity
00:00 +1°C° 0 mm 2 mps 755 mmHg 91%
01:00 +1°C° 0 mm 2 mps 755 mmHg 91%
02:00 +1°C° 0 mm 2 mps 755 mmHg 91%
03:00 +1°C° 0 mm 2 mps 754 mmHg 91%
04:00 0°C° 0 mm 3 mps 754 mmHg 91%
05:00 0°C° 0 mm 3 mps 754 mmHg 90%
06:00 0°C° 0 mm 3 mps 754 mmHg 90%
07:00 0°C° 0 mm 3 mps 754 mmHg 89%
08:00 +2°C° 0 mm 3 mps 754 mmHg 82%
09:00 +4°C° 0 mm 4 mps 754 mmHg 74%
10:00 +6°C° 0 mm 5 mps 754 mmHg 66%
11:00 +7°C° 0 mm 5 mps 754 mmHg 63%
12:00 +8°C° 0 mm 5 mps 753 mmHg 60%
13:00 +9°C° 0 mm 5 mps 753 mmHg 57%
14:00 +9°C° 0 mm 5 mps 753 mmHg 57%
15:00 +10°C° 0 mm 4 mps 753 mmHg 58%
16:00 +10°C° 0 mm 4 mps 752 mmHg 58%
17:00 +7°C° 0 mm 4 mps 753 mmHg 64%
18:00 +7°C° 0 mm 3 mps 753 mmHg 70%
19:00 +4°C° 0 mm 3 mps 753 mmHg 76%
20:00 +5°C° 0 mm 2 mps 753 mmHg 79%
21:00 +4°C° 0 mm 2 mps 753 mmHg 82%
22:00 +4°C° 0 mm 2 mps 754 mmHg 85%
23:00 +3°C° 0 mm 2 mps 754 mmHg 86%

3 March, Wednesday

Time Temperature Precipitation Wind Pressure Humidity
00:00 +4°C° 0 mm 1 mps 754 mmHg 87%
01:00 +3°C° 0 mm 1 mps 754 mmHg 88%
02:00 +3°C° 0 mm 1 mps 753 mmHg 88%
03:00 +3°C° 0 mm 1 mps 753 mmHg 88%
04:00 +2°C° 0 mm 0 mps 753 mmHg 89%
05:00 +2°C° 0 mm 0 mps 753 mmHg 89%
06:00 +2°C° 0 mm 0 mps 753 mmHg 89%
07:00 +2°C° 0 mm 0 mps 753 mmHg 89%
08:00 +3°C° 0 mm 0 mps 753 mmHg 82%
09:00 +5°C° 0 mm 0 mps 752 mmHg 75%
10:00 +7°C° 0 mm 0 mps 752 mmHg 68%
11:00 +9°C° 0 mm 1 mps 752 mmHg 63%
12:00 +10°C° 0 mm 1 mps 751 mmHg 58%
13:00 +11°C° 0 mm 1 mps 751 mmHg 53%
14:00 +11°C° 0 mm 1 mps 750 mmHg 53%
15:00 +11°C° 0 mm 1 mps 749 mmHg 53%
16:00 +11°C° 0 mm 1 mps 749 mmHg 53%
17:00 +10°C° 0 mm 1 mps 748 mmHg 58%
18:00 +7°C° 0 mm 2 mps 748 mmHg 62%
19:00 +6°C° 0 mm 2 mps 748 mmHg 67%
20:00 +6°C° 0 mm 2 mps 747 mmHg 68%
21:00 +5°C° 0 mm 2 mps 747 mmHg 70%
22:00 +5°C° 0 mm 2 mps 747 mmHg 72%
23:00 +3°C° 0 mm 3 mps 746 mmHg 73%

4 March, Thursday

Time Temperature Precipitation Wind Pressure Humidity
00:00 +3°C° 0 mm 3 mps 745 mmHg 74%
01:00 +3°C° 0 mm 4 mps 745 mmHg 75%
02:00 +3°C° 0 mm 4 mps 744 mmHg 77%
03:00 +1°C° 0 mm 4 mps 744 mmHg 79%
04:00 +1°C° 0 mm 4 mps 743 mmHg 81%
05:00 +1°C° 0 mm 4 mps 743 mmHg 82%
06:00 +1°C° 0 mm 4 mps 743 mmHg 83%
07:00 0°C° 0 mm 4 mps 742 mmHg 84%
08:00 +3°C° 0 mm 4 mps 742 mmHg 77%
09:00 +5°C° 0 mm 5 mps 741 mmHg 70%
10:00 +7°C° 0 mm 5 mps 741 mmHg 63%
11:00 +8°C° 0 mm 5 mps 741 mmHg 61%
12:00 +9°C° 0 mm 5 mps 740 mmHg 58%
13:00 +10°C° 0 mm 5 mps 740 mmHg 55%
14:00 +10°C° 0 mm 5 mps 739 mmHg 57%
15:00 +11°C° 0 mm 4 mps 739 mmHg 58%
16:00 +11°C° 0 mm 4 mps 738 mmHg 60%
17:00 +10°C° 0 mm 3 mps 738 mmHg 66%
18:00 +9°C° 0 mm 3 mps 738 mmHg 72%
19:00 +8°C° 0 mm 2 mps 738 mmHg 79%
20:00 +7°C° 0.1 mm 2 mps 738 mmHg 82%
21:00 +7°C° 0.1 mm 2 mps 738 mmHg 85%
22:00 +7°C° 0.1 mm 1 mps 738 mmHg 88%
23:00 +6°C° 0.8 mm 2 mps 737 mmHg 90%

5 March, Friday

Time Temperature Precipitation Wind Pressure Humidity
00:00 +5°C° 0.8 mm 2 mps 737 mmHg 92%
01:00 +5°C° 0.8 mm 2 mps 737 mmHg 94%
02:00 +5°C° 0.4 mm 2 mps 736 mmHg 94%
03:00 +4°C° 0.4 mm 2 mps 736 mmHg 94%
04:00 +4°C° 0.4 mm 2 mps 736 mmHg 95%
05:00 +2°C° 0.4 mm 3 mps 736 mmHg 95%
06:00 +2°C° 0.4 mm 3 mps 737 mmHg 95%
07:00 0°C° 0.4 mm 4 mps 737 mmHg 95%
08:00 -1°C° 0.4 mm 4 mps 737 mmHg 94%
09:00 -1°C° 0.4 mm 5 mps 738 mmHg 92%
10:00 -3°C° 0.4 mm 6 mps 739 mmHg 90%
11:00 -3°C° 0.4 mm 6 mps 739 mmHg 86%
12:00 -3°C° 0.4 mm 6 mps 740 mmHg 81%
13:00 -3°C° 0.4 mm 7 mps 740 mmHg 77%
14:00 -3°C° 0 mm 6 mps 741 mmHg 70%
15:00 -3°C° 0 mm 6 mps 742 mmHg 62%
16:00 -2°C° 0 mm 5 mps 743 mmHg 55%
17:00 -2°C° 0 mm 5 mps 743 mmHg 60%
18:00 -3°C° 0 mm 4 mps 744 mmHg 65%
19:00 -4°C° 0 mm 4 mps 745 mmHg 70%
20:00 -4°C° 0 mm 4 mps 745 mmHg 71%
21:00 -4°C° 0 mm 4 mps 746 mmHg 71%
22:00 -5°C° 0 mm 4 mps 746 mmHg 72%
23:00 -5°C° 0 mm 4 mps 747 mmHg 70%
Show more

We Need Your Consent

Meteoprog and our Service Providers may store and access personal data such as cookies, device identifiers or other similar technologies on your device and process such data to personalise content and ads, as well as provide social media features and to analyse the traffic.

  • Store and/or access information on your device

    Cookies, device identifiers or other information can be stored or accessed on your device for the purposes indicated above.

  • Personalised ads and content, ad and content measurement, audience insights, and products development

    Ads and content can be personalised based on a profile. More data can be added to better personalise ads and content. Ad and content performance can be measured. Insights about the audience who saw the ads and content can be derived. Such data can be used to develop or improve user’s experience, systems and software.

By clicking ‘I Agree’ you will allow the use of indicated cookies, device identifiers, web beacons or other similar technologies. Your settings can be changed in the browser on your device.

For certain purposes, legitimate interests may be relied on, rather than consent. You can read more about this in our Privacy and Cookie Policy.